www.pogodaiklimat.ru

Погода и климат >> Архив погоды >> Япония >> Кагосима


АРХИВ ПОГОДЫ в Кагосиме

Время (UTC), дата Ветер
(напр.,м/с)
 
Видим.   Явления Облачность Т
(С)
Тd
(С)
f
(%)
Тe
(С)
Тes
(С)
Комфортность P
(гПа)
Po
(гПа)
Тmin
(С)
Tmax
(С)
R
(мм)
R24
(мм)
S
(см)
22 10.06 С 1 н/о н/о +22.0 +19.2 84 +27 +27 душно 1005.0 1001.4
23 10.06 СВ 2 н/о н/о +22.6 +19.2 81 +29 +29 очень
душно
1005.6 1002.0
00 11.06 В 2 10 км 9/4
[Cu Sc Ac As]
+23.8 +19.7 78 +29 +32 душно 1005.7 1002.1 +20.9
01 11.06 ЮВ 2 н/о н/о +24.7 +20.2 76 +30 +30 очень
душно
1006.0 1002.4
02 11.06 ЮВ 3 н/о н/о +24.8 +19.9 74 +30 +30 душно 1005.8 1002.2
03 11.06 ЮВ 3 10 км 8/1
[Cu med, cong Ac trans Ci sp]
+25.4 +19.8 71 +31 +42 очень
душно
1005.5 1001.9
04 11.06 ЮВ 4 н/о н/о +25.9 +20.5 72 +32 +32 очень
душно
1005.1 1001.5
05 11.06 Ю 3 н/о н/о +26.7 +19.8 66 +33 +33 очень
душно
1004.6 1001.0
06 11.06 В 4 10 км {ливн. осадки} 8/4
[Cu med, cong Ac trans Ci sp]
+25.7 +20.3 72 +32 +36 очень
душно
1004.2 1000.6 0.0
07 11.06 В 3 н/о н/о +26.3 +20.4 70 +33 +33 очень
душно
1003.9 1000.3
08 11.06 З 4 н/о н/о +27.0 +18.3 59 +32 +32 очень
душно
1004.0 1000.4
09 11.06 З 3 15 км 9/3
[Cu med, cong Ci fib]
+25.9 +17.0 58 +30 +31 душно 1004.3 1000.7
10 11.06 СЗ 2 н/о н/о +24.4 +16.9 63 +28 +28 душно 1004.8 1001.2
11 11.06 З 2 н/о н/о +23.6 +17.6 69 +28 +28 душно 1005.6 1002.0
12 11.06 С 2 20 км 4/4
[Cu hum]
+22.6 +17.7 74 +28 +28 душно 1006.0 1002.4 +27.6 0.0
13 11.06 С 2 н/о н/о +22.2 +17.8 76 +27 +27 душно 1006.4 1002.8
14 11.06 С 3 н/о н/о +21.8 +18.0 79 +26 +26 душно 1006.6 1002.9
15 11.06 СЗ 2 н/о н/о +21.4 +18.0 81 +26 +26 душно 1006.2 1002.5
16 11.06 С 3 н/о н/о +20.5 +17.5 83 +24 +24 комфорт 1006.1 1002.4
17 11.06 С 3 н/о н/о +20.0 +17.0 83 +23 +23 комфорт 1006.1 1002.4
18 11.06 С 3 15 км ясно +19.6 +16.3 81 +22 +22 комфорт 1006.5 1002.8
19 11.06 С 4 н/о н/о +19.1 +16.0 82 +21 +21 комфорт 1006.7 1003.0
20 11.06 С 3 н/о н/о +19.0 +16.4 85 +21 +21 комфорт 1007.0 1003.3
21 11.06 С 3 25 км 1/1
[Cu hum Ac trans]
+19.2 +16.3 83 +21 +21 комфорт 1007.4 1003.7
23 11.06 СВ 3 н/о н/о +22.2 +17.4 74 +27 +27 душно 1008.0 1004.3
00 12.06 ЮВ 2 10 км 3/1
[Cu hum Ac trans Ci fib]
+23.5 +18.4 73 +28 +38 душно 1008.0 1004.4 +18.8
01 12.06 ЮВ 2 н/о н/о +24.6 +18.8 70 +29 +29 душно 1007.9 1004.3
02 12.06 ЮВ 3 н/о н/о +25.7 +19.4 68 +31 +31 очень
душно
1008.1 1004.5
03 12.06 ЮВ 3 10 км 8/1
[Cu med, cong Ci sp]
+27.4 +18.1 57 +32 +47 очень
душно
1007.6 1004.0
04 12.06 ЮВ 4 н/о н/о +26.1 +18.5 63 +31 +31 очень
душно
1007.4 1003.8
05 12.06 Ю 4 н/о н/о +27.3 +17.2 54 +31 +31 душно 1006.8 1003.2
06 12.06 З 5 10 км 9/5
[Cu med, cong Ci sp]
+26.7 +17.2 56 +31 +34 душно 1007.2 1003.6
07 12.06 З 5 н/о н/о +26.5 +16.7 55 +30 +30 душно 1007.1 1003.5
08 12.06 З 5 н/о н/о +26.5 +17.0 56 +30 +30 душно 1007.4 1003.8
09 12.06 З 3 10 км 9/3
[Cu med, cong Ci sp]
+25.4 +16.8 59 +29 +30 душно 1007.8 1004.2
10 12.06 З 3 н/о н/о +24.6 +16.6 61 +28 +28 душно 1008.2 1004.6
11 12.06 З 4 н/о н/о +23.4 +17.9 71 +29 +29 душно 1008.8 1005.2
12 12.06 СЗ 2 10 км 9/3
[Cu hum Ci sp]
+23.1 +17.8 72 +29 +29 очень
душно
1009.2 1005.6 +27.9
13 12.06 СЗ 1 н/о н/о +22.8 +17.5 72 +28 +28 душно 1009.5 1005.8
14 12.06 С 2 н/о н/о +22.7 +18.1 75 +28 +28 душно 1009.7 1006.0
15 12.06 С 3 н/о н/о +21.9 +17.7 77 +26 +26 душно 1009.4 1005.7
16 12.06 С 2 н/о н/о +21.5 +17.7 79 +26 +26 душно 1009.6 1005.9
17 12.06 С 3 н/о н/о +20.9 +17.5 81 +25 +25 комфорт 1009.3 1005.6
18 12.06 С 3 10 км 6/1
[Cu hum Ci sp]
+20.5 +17.1 81 +24 +24 комфорт 1009.3 1005.6
19 12.06 С 2 н/о н/о +20.6 +17.6 83 +25 +25 комфорт 1009.2 1005.5
20 12.06 С 2 н/о н/о +20.8 +17.8 83 +25 +25 комфорт 1009.4 1005.7
21 12.06 С 3 15 км 6/1
[Cu hum Ci fib]
+20.7 +16.9 79 +25 +25 комфорт 1009.7 1006.0
22 12.06 С 3 н/о н/о +21.9 +16.6 72 +26 +26 душно 1009.9 1006.2
23 12.06 СВ 3 н/о н/о +23.3 +15.6 62 +28 +28 душно 1010.0 1006.4
00 13.06 ЮВ 1 20 км 9/1
[Cu hum Ci sp]
+25.3 +16.5 58 +29 +39 душно 1010.2 1006.6 +20.1
01 13.06 Ю 2 н/о н/о +25.4 +16.8 59 +29 +29 душно 1010.2 1006.6
02 13.06 Ю 2 н/о н/о +27.1 +17.3 55 +31 +31 душно 1009.9 1006.3
03 13.06 Ю 3 20 км 9/1
[Cu hum Ac trans Ci sp]
+27.3 +17.2 54 +31 +41 душно 1009.9 1006.3
04 13.06 Ю 4 н/о н/о +28.0 +18.4 56 +33 +33 очень
душно
1009.2 1005.6
05 13.06 ЮВ 6 н/о н/о +28.0 +19.0 58 +33 +33 очень
душно
1008.6 1005.0
06 13.06 ЮВ 6 20 км в посл. час ливневой дождь 9/5
[Cu med, cong Ci sp]
+27.3 +19.4 62 +33 +35 очень
душно
1008.4 1004.8 0.0
07 13.06 ЮВ 7 н/о н/о +26.6 +19.2 64 +32 +32 очень
душно
1008.1 1004.5
08 13.06 ЮВ 6 н/о н/о +26.2 +18.4 62 +31 +31 очень
душно
1007.7 1004.1
09 13.06 В 4 15 км 9/1
[Cu Sc Ci sp]
+26.2 +17.8 60 +31 +31 очень
душно
1008.1 1004.5
10 13.06 В 3 н/о н/о +25.7 +18.1 63 +30 +30 душно 1008.8 1005.2
11 13.06 В 4 н/о н/о +25.2 +18.4 66 +30 +30 душно 1009.1 1005.5
12 13.06 В 3 20 км 9/1
[Cu Sc Ac trans Ci sp]
+25.1 +17.8 64 +29 +29 душно 1009.3 1005.7 +29.4 0.0
13 13.06 СВ 4 н/о н/о +24.8 +18.3 67 +29 +29 душно 1009.5 1005.9
14 13.06 СВ 4 н/о н/о +24.6 +18.1 67 +29 +29 душно 1009.0 1005.4
15 13.06 СВ 3 н/о н/о +24.5 +18.2 68 +29 +29 душно 1008.2 1004.6
16 13.06 СВ 3 н/о н/о +24.2 +18.4 70 +29 +29 душно 1007.7 1004.1
17 13.06 СВ 3 н/о н/о +24.0 +18.7 72 +29 +29 душно 1007.0 1003.4
18 13.06 СВ 3 15 км 10/1
[Cu hum Ac As]
+23.7 +18.8 74 +28 +28 душно 1006.3 1002.7
19 13.06 В 4 н/о н/о +24.2 +18.2 69 +29 +29 душно 1005.6 1002.0
20 13.06 В 4 н/о н/о +24.0 +18.7 72 +29 +29 душно 1005.6 1002.0
21 13.06 ЮЗ 2 20 км слаб. дождь 10/5
[Cu Sc Ac As]
+21.9 +21.1 95 +28 +28 душно 1006.1 1002.4
22 13.06 Ю 3 н/о н/о +20.5 +19.5 94 +25 +25 комфорт 1005.8 1002.1
23 13.06 В 1 н/о н/о +21.6 +19.9 90 +27 +27 душно 1005.3 1001.6
00 14.06 СВ 3 10 км слаб. дождь 10/3
[Frnb Ac As]
+21.7 +19.8 89 +27 +29 душно 1005.2 1001.5 +20.4 10
02 14.06 В 3 н/о н/о +22.0 +19.6 86 +28 +28 душно 1004.1 1000.5
03 14.06 В 4 15 км слаб. ливневой дождь 9/9
[Cu Sc]
+22.3 +18.7 80 +28 +28 душно 1003.3 999.7
04 14.06 В 3 н/о н/о +21.8 +19.7 88 +27 +27 душно 1001.9 998.3
05 14.06 С 3 н/о н/о +21.5 +19.4 88 +26 +26 душно 1001.0 997.4
06 14.06 СВ 4 8000 м слаб. ливневой дождь 10/9
[Cu Sc Ac As]
+21.5 +19.4 88 +26 +27 душно 1000.4 996.8 8
07 14.06 СВ 4 н/о н/о +22.0 +19.4 85 +27 +27 душно 998.8 995.2
08 14.06 В 5 н/о н/о +22.4 +20.0 86 +29 +29 очень
душно
998.8 995.2
09 14.06 СВ 5 10 км слаб. ливневой дождь 10/4
[Cu med, cong Ac As]
+22.6 +20.0 85 +29 +29 очень
душно
997.8 994.2
10 14.06 СВ 4 н/о н/о +22.7 +19.9 84 +29 +29 очень
душно
998.1 994.5
11 14.06 СВ 2 н/о н/о +21.9 +20.5 92 +28 +28 душно 996.0 992.4
12 14.06 СЗ 3 10 км в посл. час ливневой дождь 9/5
[Cu med, cong Ac As]
+22.3 +20.4 89 +29 +29 очень
душно
995.8 992.2 +23.2 12
13 14.06 СВ 6 н/о н/о +23.6 +20.2 81 +29 +29 душно 995.8 992.2
14 14.06 В 5 н/о н/о +22.4 +20.5 89 +29 +29 очень
душно
996.6 993.0
15 14.06 СВ 4 н/о н/о +22.3 +20.6 90 +29 +29 очень
душно
995.4 991.8
16 14.06 С 2 н/о н/о +21.5 +20.7 95 +27 +27 душно 994.0 990.4
17 14.06 З 2 н/о н/о +22.1 +20.4 90 +28 +28 душно 991.5 987.9
18 14.06 В 5 4000 м гроза, ливневой дождь 9/9
[Cb cap]
+21.9 +20.0 89 +28 +28 душно 991.4 987.8 15
19 14.06 С 5 н/о н/о +21.4 +20.2 93 +27 +27 душно 992.5 988.9
20 14.06 СЗ 5 н/о н/о +21.1 +20.1 94 +26 +26 душно 993.2 989.6
21 14.06 С 7 4000 м ливневой дождь {гроза} 9/9
[Cb cap]
+20.9 +19.7 93 +25 +25 комфорт 992.9 989.3
22 14.06 СЗ 4 н/о н/о +21.0 +19.8 93 +26 +26 душно 992.7 989.1
23 14.06 СЗ 3 н/о н/о +23.2 +20.5 85 +31 +31 очень
душно
993.4 989.8
00 15.06 З 7 40 км {гроза, ливн. осадки} 8/4
[Cu med, cong Ac trans]
+24.1 +19.8 77 +29 +31 душно 994.2 990.6 +20.8 35
01 15.06 З 7 н/о н/о +23.9 +19.4 76 +29 +29 душно 994.8 991.2
02 15.06 СЗ 9 н/о н/о +23.5 +18.8 75 +28 +28 душно 995.6 992.0
03 15.06 СЗ 8 10 км слаб. ливневой дождь 9/9
[Cu med, cong]
+22.0 +19.0 83 +27 +28 душно 996.3 992.7
04 15.06 СЗ 9 н/о н/о +22.3 +18.5 79 +28 +28 душно 996.3 992.7
05 15.06 СЗ 10 н/о н/о +23.5 +17.7 70 +28 +28 душно 996.4 992.8
06 15.06 СЗ 9 30 км {ливн. осадки} 8/6
[Cu med, cong Ci sp]
+24.4 +17.2 64 +28 +29 душно 996.9 993.3 0.0
07 15.06 СЗ 10 н/о н/о +24.3 +16.8 63 +28 +28 душно 997.2 993.6
08 15.06 СЗ 9 н/о н/о +24.1 +16.1 61 +27 +27 жарко 997.9 994.3
09 15.06 СЗ 7 15 км 4/3
[Cu med, cong Ci fib]
+23.1 +16.9 68 +28 +28 душно 999.1 995.5
10 15.06 СЗ 5 н/о н/о +22.2 +17.4 74 +27 +27 душно 1000.1 996.5
11 15.06 СЗ 4 н/о н/о +21.9 +17.9 78 +27 +27 душно 1001.0 997.4
12 15.06 З 4 15 км 3/3
[Cu hum]
+21.3 +18.1 82 +26 +26 душно 1001.7 998.1 +25.3 0.0
13 15.06 СЗ 4 н/о н/о +21.2 +18.2 83 +25 +25 комфорт 1002.5 998.9
14 15.06 З 3 н/о н/о +21.2 +18.2 83 +25 +25 комфорт 1003.5 999.8
15 15.06 З 3 н/о н/о +21.3 +17.9 81 +25 +25 комфорт 1003.7 1000.0
16 15.06 З 5 н/о н/о +21.4 +17.6 79 +26 +26 душно 1003.9 1000.2
17 15.06 СЗ 4 н/о н/о +21.2 +17.4 79 +25 +25 комфорт 1003.9 1000.2
18 15.06 З 2 15 км {ливн. осадки} 6/5
[Cu med, cong Ci fib]
+20.7 +17.1 80 +25 +25 комфорт 1003.7 1000.0 0.0
19 15.06 З 3 н/о н/о +20.6 +16.8 79 +24 +24 комфорт 1003.7 1000.0
20 15.06 СЗ 2 н/о н/о +20.6 +17.2 81 +25 +25 комфорт 1004.2 1000.5
21 15.06 З 4 15 км 8/1
[Cu med, cong Ci fib]
+20.7 +16.9 79 +24 +25 комфорт 1004.8 1001.1
22 15.06 З 4 н/о н/о +21.9 +16.9 73 +26 +26 душно 1005.2 1001.6
23 15.06 З 6 н/о н/о +23.0 +17.0 69 +28 +28 душно 1005.7 1002.1
00 16.06 СЗ 5 30 км 8/3
[Cu med, cong Ci sp]
+24.5 +16.0 59 +28 +31 душно 1005.8 1002.2 +20.2 0.0
01 16.06 З 6 н/о н/о +24.6 +15.5 57 +28 +28 душно 1006.4 1002.8
02 16.06 СЗ 8 н/о н/о +25.5 +14.6 51 +28 +28 жарко 1006.7 1003.1
03 16.06 СЗ 5 30 км 4/3
[Cu med, cong Ci sp]
+26.1 +15.5 52 +29 +37 жарко 1007.1 1003.5
04 16.06 З 5 н/о н/о +26.9 +16.5 53 +30 +30 душно 1007.0 1003.4
05 16.06 З 7 н/о н/о +25.8 +15.2 52 +29 +29 душно 1007.1 1003.5
06 16.06 З 6 30 км 6/1
[Cu med, cong Ci sp]
+27.0 +17.5 56 +31 +36 душно 1007.2 1003.6
07 16.06 З 7 н/о н/о +25.4 +16.3 57 +29 +29 душно 1007.5 1003.9
08 16.06 З 6 н/о н/о +24.5 +16.8 62 +28 +28 душно 1007.8 1004.2
09 16.06 СЗ 6 20 км 9/1
[Cu Sc Ac trans Ci sp]
+23.3 +17.3 69 +29 +29 душно 1008.4 1004.8
10 16.06 СЗ 4 н/о н/о +22.6 +17.3 72 +27 +27 душно 1009.0 1005.3
11 16.06 СЗ 4 н/о н/о +22.1 +17.7 76 +27 +27 душно 1009.6 1005.9
12 16.06 СЗ 2 20 км 8/1
[Cu Sc Ac trans Ci sp]
+21.6 +17.6 78 +26 +26 душно 1010.5 1006.8 +27.5
13 16.06 СЗ 3 н/о н/о +21.4 +18.0 81 +26 +26 душно 1011.0 1007.3
14 16.06 СЗ 4 н/о н/о +21.0 +17.6 81 +25 +25 комфорт 1010.9 1007.2
15 16.06 С 3 н/о н/о +20.6 +17.8 84 +25 +25 комфорт 1011.2 1007.5
16 16.06 С 2 н/о н/о +20.3 +17.9 86 +24 +24 комфорт 1011.6 1007.9
17 16.06 С 2 н/о н/о +20.2 +18.0 87 +24 +24 комфорт 1011.2 1007.5
18 16.06 С 3 15 км 9/0
[Ac trans Ci fib]
+19.8 +17.8 88 +23 +23 комфорт 1011.1 1007.4
19 16.06 СЗ 2 н/о н/о +19.5 +17.6 89 +22 +22 комфорт 1011.5 1007.8
20 16.06 С 2 н/о н/о +19.3 +17.5 89 +22 +22 комфорт 1011.8 1008.1
21 16.06 СЗ 2 10 км 9/1
[Cu Sc Ac trans Ci fib]
+19.3 +17.6 90 +22 +22 комфорт 1012.2 1008.5
22 16.06 С 2 н/о н/о +20.6 +18.0 85 +25 +25 комфорт 1012.8 1009.1
23 16.06 С 2 н/о н/о +22.0 +18.8 82 +27 +27 душно 1013.3 1009.6
00 17.06 СВ 2 10 км 9/1
[Cu med, cong Ac trans Ci fib]
+23.8 +18.0 70 +28 +34 душно 1013.6 1009.9 +19.0
01 17.06 В 2 н/о н/о +26.1 +18.3 62 +31 +31 очень
душно
1013.4 1009.8
02 17.06 В 3 н/о н/о +26.3 +19.2 65 +32 +32 очень
душно
1013.5 1009.9
03 17.06 ЮВ 4 15 км 3/3
[Cu med, cong Ac trans Ci fib]
+26.7 +19.3 64 +32 +43 очень
душно
1013.2 1009.6
05 17.06 ЮВ 3 н/о н/о +27.0 +20.8 69 +34 +34 очень
душно
1012.5 1008.9
06 17.06 Ю 3 15 км 3/3
[Cu med, cong Ci fib]
+27.0 +19.9 65 +33 +42 очень
душно
1011.9 1008.3
07 17.06 ЮВ 2 н/о н/о +26.0 +20.8 73 +33 +33 очень
душно
1011.9 1008.3
08 17.06 З 4 н/о н/о +26.5 +18.6 62 +31 +31 душно 1011.7 1008.1
09 17.06 З 4 15 км {ливн. осадки} 8/3
[Cu med, cong Ac trans Ci fib]
+25.7 +18.9 66 +31 +31 очень
душно
1012.2 1008.6
10 17.06 З 4 н/о н/о +24.4 +18.6 70 +29 +29 душно 1012.6 1009.0
11 17.06 СЗ 3 н/о н/о +23.5 +18.4 73 +28 +28 душно 1013.3 1009.6
12 17.06 СЗ 1 15 км {ливн. осадки} 9/1
[Cu med, cong Ac trans Ci fib]
+23.4 +18.3 73 +29 +29 душно 1013.8 1010.1 +28.1 0.0
13 17.06 СЗ 3 н/о н/о +23.1 +18.0 73 +29 +29 очень
душно
1014.1 1010.4
14 17.06 СЗ 2 н/о н/о +22.7 +19.3 81 +29 +29 очень
душно
1014.0 1010.3
15 17.06 С 1 н/о н/о +22.4 +19.6 84 +28 +28 душно 1013.8 1010.1
16 17.06 С 2 н/о н/о +22.2 +19.6 85 +28 +28 душно 1013.4 1009.7
18 17.06 С 2 10 км 9/3
[Sc Ac As]
+21.7 +19.3 86 +27 +27 душно 1012.8 1009.1
19 17.06 С 1 н/о н/о +21.9 +19.3 85 +27 +27 душно 1012.9 1009.2
20 17.06 С 2 н/о н/о +21.7 +19.3 86 +27 +27 душно 1013.0 1009.3
21 17.06 С 2 10 км 10/1
[Sc Ac As]
+21.2 +18.8 86 +26 +26 душно 1013.5 1009.8
22 17.06 СЗ 2 н/о н/о +22.0 +19.2 84 +27 +27 душно 1013.4 1009.7

 

Местоположение метеостанции Кагосима (Япония): широта 31.55 долгота 130.55 высота над уровнем моря 32 м.

В архиве по умолчанию представлена погода в Кагосиме за последнюю неделю. Архивные данные за месяц целиком и за предыдущие месяцы, начиная с января 2011 года, Вы можете получить, выбрав интересующий диапазон дат из раскрывающегося списка и нажав кнопку "Ввод!".


*Определитесь, кто Вы:
робот инопланетянин человек

Внимание! Время в таблицах - всемирное. Для получения местного времени необходимо прибавить поправку, которая равна 9 ч.

Смотрите также архив погоды в соседних городах и на ближайших метеорологических станциях:

Погода в Макурадзаки (Япония) (39 км)
Погода в Ушибуке (Япония) (53 км)
Погода в Мияконодзё (Япония) (54 км)
Погода в Акуне (Япония) (63 км)
Погода в Хитоёси (Япония) (77 км)
Погода в Абурацу (Япония) (81 км)
Погода в Миядзаки (Япония) (92 км)
Погода на Танегасиме (Япония) (100 км)
Погода на Якусиме (Япония) (131 км)
Погода на Ундзэне (Япония) (134 км)

Пояснения к столбцам:

Ветер - указаны скорость ветра в м/с - средняя за 10 мин, порывы в срок и между сроками (в фигурных скобках) и направление, откуда дует ветер: С - северный, СВ - северо-восточный, В - восточный, ЮВ - юго-восточный, Ю - южный, ЮЗ - юго-западный, З - западный, СЗ - северо-западный.
Видимость - горизонтальная дальность видимости в метрах или километрах. При видимости от 1 до 10 км при отсутствии осадков обычно наблюдается дымка, при ухудшении видимости до 1 км и менее - туман. В сухую погоду видимость может ухудшаться дымом, пылью или мглою.
Явления - указаны атмосферные явления, наблюдавшиеся в срок или в последний час перед сроком; фигурными скобками обозначены явления, наблюдавшиеся между сроками (за 1-3 часа до срока); квадратными скобками обозначены град или гололедные отложения с указанием их диаметра в мм.
Облачность - указаны через наклонную черту общая и нижняя облачность в баллах и высота нижней границы облаков в метрах; квадратными скобками обозначены формы облаков: Ci - перистые, Cs - перисто-слоистые, Cc - перисто-кучевые, Ac - высококучевые, As - высокослоистые, Sc - слоисто-кучевые, Ns - слоисто-дождевые, Cu - кучевые, Cb - кучево-дождевые. Подробнее классификацию облаков см. в Атласе облаков (PDF).
T - Температура воздуха - температура, измеренная на высоте 2 м над землей.
Td - Температура точки росы - температура, при понижении до которой содержащийся в воздухе водяной пар достигнет насыщения.
f - Относительная влажность воздуха - влажноcть воздуха, измеренная на высоте 2 м над землей.
Te - Эффективная температура - температура, которую ощущает одетый по сезону человек в тени. Характеристика душности погоды. При расчете учитывается влияние влажности воздуха и скорости ветра на теплоощущения человека.
Tes - Эффективная температура на солнце - температура, которую ощущает человек, с поправкой на солнечный нагрев. Характеристика знойности погоды. Зависит от высоты солнца над горизонтом, облачности и скорости ветра. Ночью, в пасмурную погоду, а также при ветре 12 м/с и более поправка равна нулю.
P - Атмосферное давление - приведенное к уровню моря атмосферное давление.
Po - Атмосферное давление - измеренное на уровне метеостанции атмосферное давление.
Tmin - Минимальная температура - минимум температуры воздуха на высоте 2 м над землей.
Tmax - Максимальная температура - максимум температуры воздуха на высоте 2 м над землей.
R - Количество осадков - Количество выпавших осадков за период времени, мм. При наведении курсора мыши на число - период времени, за который выпало указанное количество осадков.
R24 - Количество осадков - Количество выпавших осадков за 24 часа, мм.
S - Снежный покров - Высота снежного покрова, см. При наведении курсора мыши на число - состояние снежного покрова и степень покрытия местности в баллах.